TimePDT,TemperatureF,Dew PointF,Humidity,Sea Level PressureIn,VisibilityMPH,Wind Direction,Wind SpeedMPH,Gust SpeedMPH,PrecipitationIn,Events,Conditions,WindDirDegrees,DateUTC
12:53 AM,39.9,34.0,79,29.91,10.0,SSW,9.2,-,N/A,,Scattered Clouds,210,2012-10-21 07:53:00
1:53 AM,39.0,34.0,82,29.92,10.0,SSW,6.9,-,N/A,,Partly Cloudy,210,2012-10-21 08:53:00
2:53 AM,39.0,33.1,79,29.92,10.0,Calm,Calm,-,N/A,,Overcast,0,2012-10-21 09:53:00
3:53 AM,36.0,32.0,86,29.91,10.0,South,5.8,-,N/A,,Mostly Cloudy,170,2012-10-21 10:53:00
4:53 AM,36.0,30.9,82,29.91,10.0,South,5.8,-,N/A,,Clear,170,2012-10-21 11:53:00
5:53 AM,33.1,30.0,89,29.90,10.0,South,5.8,-,N/A,,Clear,170,2012-10-21 12:53:00
6:53 AM,33.1,30.0,89,29.91,10.0,South,5.8,-,N/A,,Clear,180,2012-10-21 13:53:00
7:53 AM,30.9,28.9,92,29.91,10.0,SE,4.6,-,N/A,,Partly Cloudy,130,2012-10-21 14:53:00
8:53 AM,41.0,33.1,73,29.93,10.0,SSW,5.8,-,N/A,,Clear,210,2012-10-21 15:53:00
9:53 AM,43.0,32.0,65,29.93,10.0,SW,3.5,-,N/A,,Clear,230,2012-10-21 16:53:00
10:53 AM,46.9,34.0,61,29.91,10.0,Calm,Calm,-,N/A,,Partly Cloudy,0,2012-10-21 17:53:00
11:53 AM,52.0,32.0,47,29.89,10.0,West,4.6,-,N/A,,Clear,270,2012-10-21 18:53:00
12:53 PM,54.0,33.1,45,29.88,10.0,Calm,Calm,-,N/A,,Clear,0,2012-10-21 19:53:00
1:53 PM,54.0,33.1,45,29.86,10.0,Calm,Calm,-,N/A,,Clear,0,2012-10-21 20:53:00
2:53 PM,55.9,33.1,42,29.85,10.0,Variable,3.5,-,N/A,,Partly Cloudy,0,2012-10-21 21:53:00
3:53 PM,54.0,34.0,47,29.84,10.0,North,5.8,-,N/A,,Clear,350,2012-10-21 22:53:00
4:53 PM,54.0,34.0,47,29.83,10.0,NE,3.5,-,N/A,,Overcast,40,2012-10-21 23:53:00
5:53 PM,48.0,34.0,58,29.83,10.0,Calm,Calm,-,N/A,,Scattered Clouds,0,2012-10-22 00:53:00
6:53 PM,46.0,37.0,71,29.83,10.0,East,3.5,-,N/A,,Scattered Clouds,100,2012-10-22 01:53:00
7:53 PM,45.0,36.0,71,29.83,10.0,Calm,Calm,-,N/A,,Mostly Cloudy,0,2012-10-22 02:53:00
8:53 PM,44.1,35.1,71,29.82,10.0,SSE,3.5,-,N/A,,Scattered Clouds,150,2012-10-22 03:53:00
9:53 PM,42.1,35.1,76,29.81,10.0,South,3.5,-,N/A,,Partly Cloudy,190,2012-10-22 04:53:00
10:53 PM,37.0,33.1,86,29.80,10.0,SSE,3.5,-,N/A,,Clear,160,2012-10-22 05:53:00
11:53 PM,37.0,33.1,86,29.78,10.0,SSE,5.8,-,N/A,,Clear,160,2012-10-22 06:53:00